TimeCDT,TemperatureF,Dew PointF,Humidity,Sea Level PressureIn,VisibilityMPH,Wind Direction,Wind SpeedMPH,Gust SpeedMPH,PrecipitationIn,Events,Conditions,WindDirDegrees,DateUTC
12:15 AM,37.4,37.4,100,29.99,10.0,WNW,4.6,-,N/A,,Clear,290,2013-09-21 05:15:00
12:35 AM,37.4,37.4,100,29.99,10.0,WNW,4.6,-,N/A,,Scattered Clouds,290,2013-09-21 05:35:00
12:55 AM,37.4,37.4,100,29.99,10.0,West,8.1,-,N/A,,Scattered Clouds,270,2013-09-21 05:55:00
1:15 AM,37.4,37.4,100,29.99,10.0,WNW,4.6,-,N/A,Rain,Light Rain,290,2013-09-21 06:15:00
1:35 AM,37.4,37.4,100,29.99,10.0,West,5.8,-,N/A,Rain,Light Rain,280,2013-09-21 06:35:00
1:55 AM,35.6,35.6,100,29.99,10.0,WNW,4.6,-,N/A,Rain,Light Rain,290,2013-09-21 06:55:00
2:15 AM,35.6,35.6,100,29.99,10.0,Calm,Calm,-,N/A,Rain,Light Rain,0,2013-09-21 07:15:00
2:35 AM,35.6,35.6,100,29.99,0.8,Calm,Calm,-,N/A,Rain,Light Rain,0,2013-09-21 07:35:00
2:55 AM,35.6,35.6,100,29.99,1.2,ESE,3.5,-,0.01,,Clear,110,2013-09-21 07:55:00
3:15 AM,35.6,35.6,100,29.99,1.8,South,3.5,-,N/A,,Clear,170,2013-09-21 08:15:00
3:35 AM,33.8,33.8,100,29.99,5.0,Calm,Calm,-,N/A,,Clear,0,2013-09-21 08:35:00
3:55 AM,32.0,32.0,100,29.99,0.5,Calm,Calm,-,N/A,Fog,Fog,0,2013-09-21 08:55:00
4:15 AM,32.0,32.0,100,29.99,8.0,Calm,Calm,-,N/A,,Clear,0,2013-09-21 09:15:00
4:35 AM,32.0,32.0,100,30.00,0.8,Calm,Calm,-,N/A,,Mist,0,2013-09-21 09:35:00
4:55 AM,33.8,33.8,100,30.00,0.2,Calm,Calm,-,N/A,Snow,Heavy Snow,0,2013-09-21 09:55:00
5:15 AM,32.0,32.0,100,29.99,0.2,Calm,Calm,-,N/A,Fog,Fog,0,2013-09-21 10:15:00
5:35 AM,32.0,32.0,100,30.00,0.2,Calm,Calm,-,N/A,Fog,Fog,0,2013-09-21 10:35:00
5:55 AM,32.0,32.0,100,30.00,0.2,Calm,Calm,-,N/A,Fog,Fog,0,2013-09-21 10:55:00
6:15 AM,32.0,32.0,100,30.00,0.2,Calm,Calm,-,N/A,Fog,Fog,0,2013-09-21 11:15:00
6:35 AM,32.0,32.0,100,30.00,0.5,ENE,3.5,-,N/A,Fog,Fog,70,2013-09-21 11:35:00
6:55 AM,35.6,35.6,100,29.99,0.8,ENE,4.6,-,N/A,,Mist,70,2013-09-21 11:55:00
7:15 AM,32.0,32.0,100,30.00,8.0,East,3.5,-,N/A,,Clear,80,2013-09-21 12:15:00
7:35 AM,33.8,33.8,100,30.00,10.0,East,3.5,-,N/A,Snow,Light Snow,100,2013-09-21 12:35:00
7:55 AM,35.6,35.6,100,30.00,10.0,ESE,3.5,-,N/A,,Clear,120,2013-09-21 12:55:00
8:15 AM,37.4,37.4,100,30.00,7.0,ESE,3.5,-,N/A,,Clear,120,2013-09-21 13:15:00
8:35 AM,39.2,39.2,100,30.00,10.0,ESE,4.6,-,N/A,,Clear,120,2013-09-21 13:35:00
8:55 AM,42.8,42.8,100,30.01,10.0,ESE,5.8,-,N/A,Rain,Light Rain,120,2013-09-21 13:55:00
9:15 AM,44.6,44.6,100,30.01,10.0,SE,8.1,-,N/A,Rain,Light Rain,130,2013-09-21 14:15:00
9:35 AM,44.6,44.6,100,30.01,10.0,SE,6.9,-,0.01,Rain,Light Rain,130,2013-09-21 14:35:00
9:55 AM,46.4,46.4,100,30.01,10.0,SE,6.9,-,0.01,Rain,Light Rain,140,2013-09-21 14:55:00
10:15 AM,48.2,48.2,100,30.01,10.0,SE,9.2,-,N/A,,Partly Cloudy,140,2013-09-21 15:15:00
10:35 AM,50.0,46.4,87,30.01,10.0,SE,5.8,-,N/A,,Partly Cloudy,140,2013-09-21 15:35:00
10:55 AM,50.0,46.4,87,30.01,10.0,SSE,4.6,-,N/A,,Clear,160,2013-09-21 15:55:00
11:15 AM,51.8,46.4,82,30.00,10.0,SSE,8.1,-,N/A,,Partly Cloudy,150,2013-09-21 16:15:00
11:35 AM,53.6,46.4,77,29.99,10.0,SE,5.8,-,N/A,,Scattered Clouds,140,2013-09-21 16:35:00
11:55 AM,53.6,46.4,77,29.99,10.0,SSE,6.9,-,N/A,,Scattered Clouds,150,2013-09-21 16:55:00
12:15 PM,55.4,46.4,72,29.99,10.0,ESE,6.9,-,N/A,,Partly Cloudy,110,2013-09-21 17:15:00
12:35 PM,55.4,46.4,72,29.98,10.0,SSE,6.9,-,N/A,,Clear,160,2013-09-21 17:35:00
12:55 PM,57.2,46.4,67,29.97,10.0,SSE,8.1,-,N/A,,Clear,150,2013-09-21 17:55:00
1:15 PM,57.2,44.6,63,29.96,10.0,ESE,5.8,-,N/A,,Clear,120,2013-09-21 18:15:00
1:35 PM,57.2,46.4,67,29.95,10.0,SSE,9.2,-,N/A,,Clear,150,2013-09-21 18:35:00
1:55 PM,57.2,46.4,67,29.94,10.0,SSE,10.4,-,N/A,,Clear,160,2013-09-21 18:55:00
2:15 PM,59.0,46.4,63,29.93,10.0,South,8.1,-,N/A,,Clear,170,2013-09-21 19:15:00
2:35 PM,59.0,44.6,59,29.92,10.0,SSE,6.9,-,N/A,,Clear,150,2013-09-21 19:35:00
2:55 PM,59.0,44.6,59,29.91,10.0,SE,12.7,-,N/A,,Clear,130,2013-09-21 19:55:00
3:15 PM,60.8,44.6,55,29.91,10.0,ESE,10.4,-,N/A,,Clear,120,2013-09-21 20:15:00
3:35 PM,60.8,44.6,55,29.90,10.0,SE,10.4,-,N/A,,Clear,130,2013-09-21 20:35:00
3:55 PM,62.6,42.8,48,29.89,10.0,ESE,9.2,16.1,N/A,,Clear,120,2013-09-21 20:55:00
4:15 PM,62.6,42.8,48,29.88,10.0,SE,11.5,16.1,N/A,,Clear,130,2013-09-21 21:15:00
4:35 PM,62.6,42.8,48,29.87,10.0,SE,10.4,-,N/A,,Clear,140,2013-09-21 21:35:00
4:55 PM,62.6,41.0,45,29.87,10.0,SE,9.2,-,N/A,,Clear,140,2013-09-21 21:55:00
5:15 PM,62.6,42.8,48,29.87,10.0,SE,11.5,-,N/A,,Clear,140,2013-09-21 22:15:00
5:35 PM,62.6,42.8,48,29.86,10.0,SSE,11.5,-,N/A,,Clear,150,2013-09-21 22:35:00
5:55 PM,60.8,41.0,48,29.85,10.0,SE,15.0,-,N/A,,Clear,130,2013-09-21 22:55:00
6:15 PM,59.0,42.8,55,29.86,10.0,SE,11.5,-,N/A,,Clear,130,2013-09-21 23:15:00
6:35 PM,59.0,42.8,55,29.85,10.0,SE,11.5,17.3,N/A,,Clear,130,2013-09-21 23:35:00
6:55 PM,57.2,42.8,59,29.85,10.0,SE,10.4,-,N/A,,Clear,130,2013-09-21 23:55:00
7:15 PM,55.4,44.6,67,29.85,10.0,ESE,8.1,-,N/A,,Clear,120,2013-09-22 00:15:00
7:35 PM,53.6,44.6,72,29.85,10.0,ESE,8.1,-,N/A,,Clear,120,2013-09-22 00:35:00
7:55 PM,48.2,46.4,93,29.85,10.0,ESE,6.9,-,N/A,,Clear,120,2013-09-22 00:55:00
8:15 PM,48.2,46.4,93,29.85,10.0,ESE,8.1,-,N/A,,Clear,120,2013-09-22 01:15:00
8:35 PM,46.4,46.4,100,29.85,10.0,ESE,6.9,-,N/A,,Clear,120,2013-09-22 01:35:00
8:55 PM,46.4,44.6,93,29.86,10.0,ESE,8.1,-,N/A,,Clear,110,2013-09-22 01:55:00
9:15 PM,46.4,46.4,100,29.85,10.0,ESE,6.9,-,N/A,,Clear,110,2013-09-22 02:15:00
9:35 PM,44.6,44.6,100,29.86,10.0,ESE,6.9,-,N/A,,Clear,110,2013-09-22 02:35:00
9:55 PM,44.6,44.6,100,29.85,10.0,ESE,8.1,-,N/A,,Clear,110,2013-09-22 02:55:00
10:15 PM,44.6,44.6,100,29.85,10.0,ESE,8.1,-,N/A,,Clear,120,2013-09-22 03:15:00
10:35 PM,44.6,44.6,100,29.85,10.0,ESE,8.1,-,N/A,,Clear,120,2013-09-22 03:35:00
10:55 PM,46.4,46.4,100,29.84,10.0,ESE,9.2,-,N/A,,Clear,120,2013-09-22 03:55:00
11:15 PM,46.4,46.4,100,29.84,10.0,ESE,8.1,-,N/A,,Clear,120,2013-09-22 04:15:00
11:35 PM,46.4,46.4,100,29.84,10.0,ESE,9.2,-,N/A,,Clear,120,2013-09-22 04:35:00
11:55 PM,46.4,46.4,100,29.84,10.0,ESE,9.2,-,N/A,,Clear,120,2013-09-22 04:55:00